Time,TemperatureF,DewpointF,PressureIn,WindDirection,WindDirectionDegrees,WindSpeedMPH,WindSpeedGustMPH,Humidity,HourlyPrecipIn,Conditions,Clouds,dailyrainin,SolarRadiationWatts/m^2,SoftwareType,DateUTC
2014-02-04 00:12:00,48.0,29.0,-100.00,SSE,156,6.0,7.0,48,0.00,,,0.00,0.000000,,2014-02-04 08:12:00,
2014-02-04 00:21:00,48.0,29.0,-100.00,SSE,156,6.0,7.0,48,0.00,,,0.00,0.000000,,2014-02-04 08:21:00,
2014-02-04 00:32:00,48.0,29.0,-100.00,SSE,156,6.0,7.0,48,0.00,,,0.00,0.000000,,2014-02-04 08:32:00,
2014-02-04 00:42:00,48.0,29.0,-100.00,SSE,156,6.0,7.0,48,0.00,,,0.00,0.000000,,2014-02-04 08:42:00,
2014-02-04 01:12:00,49.0,32.0,-100.00,South,183,6.0,9.0,52,0.00,,,0.00,0.000000,,2014-02-04 09:12:00,
2014-02-04 01:22:00,49.0,32.0,-100.00,South,183,6.0,9.0,52,0.00,,,0.00,0.000000,,2014-02-04 09:22:00,
2014-02-04 01:33:00,49.0,32.0,-100.00,South,183,6.0,9.0,52,0.00,,,0.00,0.000000,,2014-02-04 09:33:00,
2014-02-04 01:43:00,49.0,32.0,-100.00,South,183,6.0,9.0,52,0.00,,,0.00,0.000000,,2014-02-04 09:43:00,
2014-02-04 02:12:00,49.0,34.0,-100.00,South,188,5.0,9.0,55,0.00,,,0.00,0.000000,,2014-02-04 10:12:00,
2014-02-04 02:23:00,49.0,34.0,-100.00,South,188,5.0,9.0,55,0.00,,,0.00,0.000000,,2014-02-04 10:23:00,
2014-02-04 02:34:00,49.0,34.0,-100.00,South,188,5.0,9.0,55,0.00,,,0.00,0.000000,,2014-02-04 10:34:00,
2014-02-04 02:42:00,49.0,34.0,-100.00,South,188,5.0,9.0,55,0.00,,,0.00,0.000000,,2014-02-04 10:42:00,
2014-02-04 03:12:00,44.0,33.0,-100.00,SE,126,5.0,6.0,66,0.00,,,0.00,0.000000,,2014-02-04 11:12:00,
2014-02-04 03:22:00,44.0,33.0,-100.00,SE,126,5.0,6.0,66,0.00,,,0.00,0.000000,,2014-02-04 11:22:00,
2014-02-04 03:33:00,44.0,33.0,-100.00,SE,126,5.0,6.0,66,0.00,,,0.00,0.000000,,2014-02-04 11:33:00,
2014-02-04 03:42:00,44.0,33.0,-100.00,SE,126,5.0,6.0,66,0.00,,,0.00,0.000000,,2014-02-04 11:42:00,
2014-02-04 04:11:00,43.0,32.0,-100.00,SSE,168,5.0,6.0,66,0.00,,,0.00,0.000000,,2014-02-04 12:11:00,
2014-02-04 04:22:00,43.0,32.0,-100.00,SSE,168,5.0,6.0,66,0.00,,,0.00,0.000000,,2014-02-04 12:22:00,
2014-02-04 04:32:00,43.0,32.0,-100.00,SSE,168,5.0,6.0,66,0.00,,,0.00,0.000000,,2014-02-04 12:32:00,
2014-02-04 04:42:00,43.0,32.0,-100.00,SSE,168,5.0,6.0,66,0.00,,,0.00,0.000000,,2014-02-04 12:42:00,
2014-02-04 05:11:00,41.0,32.0,-100.00,South,175,5.0,7.0,70,0.00,,,0.00,0.000000,,2014-02-04 13:11:00,
2014-02-04 05:21:00,41.0,32.0,-100.00,South,175,5.0,7.0,70,0.00,,,0.00,0.000000,,2014-02-04 13:21:00,
2014-02-04 05:32:00,41.0,32.0,-100.00,South,175,5.0,7.0,70,0.00,,,0.00,0.000000,,2014-02-04 13:32:00,
2014-02-04 05:42:00,41.0,32.0,-100.00,South,175,5.0,7.0,70,0.00,,,0.00,0.000000,,2014-02-04 13:42:00,
2014-02-04 06:12:00,40.0,31.0,-100.00,South,178,6.0,7.0,71,0.00,,,0.00,0.000000,,2014-02-04 14:12:00,
2014-02-04 06:22:00,40.0,31.0,-100.00,South,178,6.0,7.0,71,0.00,,,0.00,0.000000,,2014-02-04 14:22:00,
2014-02-04 06:32:00,40.0,31.0,-100.00,South,178,6.0,7.0,71,0.00,,,0.00,0.000000,,2014-02-04 14:32:00,
2014-02-04 06:42:00,40.0,31.0,-100.00,South,178,6.0,7.0,71,0.00,,,0.00,0.000000,,2014-02-04 14:42:00,
2014-02-04 07:11:00,41.0,32.0,-100.00,SSE,158,6.0,8.0,70,0.00,,,0.00,3.000000,,2014-02-04 15:11:00,
2014-02-04 07:21:00,41.0,32.0,-100.00,SSE,158,6.0,8.0,70,0.00,,,0.00,3.000000,,2014-02-04 15:21:00,
2014-02-04 07:33:00,41.0,32.0,-100.00,SSE,158,6.0,8.0,70,0.00,,,0.00,3.000000,,2014-02-04 15:33:00,
2014-02-04 07:43:00,41.0,32.0,-100.00,SSE,158,6.0,8.0,70,0.00,,,0.00,3.000000,,2014-02-04 15:43:00,
2014-02-04 08:13:00,47.0,33.0,-100.00,South,178,4.0,6.0,57,0.00,,,0.00,153.000000,,2014-02-04 16:13:00,
2014-02-04 08:23:00,47.0,33.0,-100.00,South,178,4.0,6.0,57,0.00,,,0.00,153.000000,,2014-02-04 16:23:00,
2014-02-04 08:34:00,47.0,33.0,-100.00,South,178,4.0,6.0,57,0.00,,,0.00,153.000000,,2014-02-04 16:34:00,
2014-02-04 08:42:00,47.0,33.0,-100.00,South,178,4.0,6.0,57,0.00,,,0.00,153.000000,,2014-02-04 16:42:00,
2014-02-04 09:22:00,54.0,35.0,-100.00,South,175,3.0,5.0,49,0.00,,,0.00,324.000000,,2014-02-04 17:22:00,
2014-02-04 09:34:00,54.0,35.0,-100.00,South,175,3.0,5.0,49,0.00,,,0.00,324.000000,,2014-02-04 17:34:00,
2014-02-04 09:42:00,54.0,35.0,-100.00,South,175,3.0,5.0,49,0.00,,,0.00,324.000000,,2014-02-04 17:42:00,
2014-02-04 10:21:00,60.0,34.0,-100.00,SE,142,3.0,5.0,38,0.00,,,0.00,489.000000,,2014-02-04 18:21:00,
2014-02-04 10:32:00,60.0,34.0,-100.00,SE,142,3.0,5.0,38,0.00,,,0.00,489.000000,,2014-02-04 18:32:00,
2014-02-04 10:43:00,60.0,34.0,-100.00,SE,142,3.0,5.0,38,0.00,,,0.00,489.000000,,2014-02-04 18:43:00,
2014-02-04 11:11:00,63.0,36.0,-100.00,WNW,282,4.0,8.0,36,0.00,,,0.00,687.000000,,2014-02-04 19:11:00,
2014-02-04 11:21:00,63.0,36.0,-100.00,WNW,282,4.0,8.0,36,0.00,,,0.00,687.000000,,2014-02-04 19:21:00,
2014-02-04 11:32:00,63.0,36.0,-100.00,WNW,282,4.0,8.0,36,0.00,,,0.00,687.000000,,2014-02-04 19:32:00,
2014-02-04 11:42:00,63.0,36.0,-100.00,WNW,282,4.0,8.0,36,0.00,,,0.00,687.000000,,2014-02-04 19:42:00,
2014-02-04 12:11:00,66.0,35.0,-100.00,West,271,5.0,11.0,32,0.00,,,0.00,752.000000,,2014-02-04 20:11:00,
2014-02-04 12:21:00,66.0,35.0,-100.00,West,271,5.0,11.0,32,0.00,,,0.00,752.000000,,2014-02-04 20:21:00,
2014-02-04 12:32:00,66.0,35.0,-100.00,West,271,5.0,11.0,32,0.00,,,0.00,752.000000,,2014-02-04 20:32:00,
2014-02-04 12:42:00,66.0,35.0,-100.00,West,271,5.0,11.0,32,0.00,,,0.00,752.000000,,2014-02-04 20:42:00,
2014-02-04 13:11:00,66.0,32.0,-100.00,West,261,7.0,14.0,28,0.00,,,0.00,748.000000,,2014-02-04 21:11:00,
2014-02-04 13:22:00,66.0,32.0,-100.00,West,261,7.0,14.0,28,0.00,,,0.00,748.000000,,2014-02-04 21:22:00,
2014-02-04 13:33:00,66.0,32.0,-100.00,West,261,7.0,14.0,28,0.00,,,0.00,748.000000,,2014-02-04 21:33:00,
2014-02-04 13:43:00,66.0,32.0,-100.00,West,261,7.0,14.0,28,0.00,,,0.00,748.000000,,2014-02-04 21:43:00,
2014-02-04 14:12:00,68.0,31.0,-100.00,WNW,284,5.0,11.0,25,0.00,,,0.00,651.000000,,2014-02-04 22:12:00,
2014-02-04 14:23:00,68.0,31.0,-100.00,WNW,284,5.0,11.0,25,0.00,,,0.00,651.000000,,2014-02-04 22:23:00,
2014-02-04 14:33:00,68.0,31.0,-100.00,WNW,284,5.0,11.0,25,0.00,,,0.00,651.000000,,2014-02-04 22:33:00,
2014-02-04 14:42:00,68.0,31.0,-100.00,WNW,284,5.0,11.0,25,0.00,,,0.00,651.000000,,2014-02-04 22:42:00,
2014-02-04 15:12:00,68.0,31.0,-100.00,South,183,7.0,14.0,25,0.00,,,0.00,544.000000,,2014-02-04 23:12:00,
2014-02-04 15:22:00,68.0,31.0,-100.00,South,183,7.0,14.0,25,0.00,,,0.00,544.000000,,2014-02-04 23:22:00,
2014-02-04 15:33:00,68.0,31.0,-100.00,South,183,7.0,14.0,25,0.00,,,0.00,544.000000,,2014-02-04 23:33:00,
2014-02-04 15:42:00,68.0,31.0,-100.00,South,183,7.0,14.0,25,0.00,,,0.00,544.000000,,2014-02-04 23:42:00,
2014-02-04 16:11:00,66.0,29.0,-100.00,WSW,240,3.0,10.0,25,0.00,,,0.00,278.000000,,2014-02-05 00:11:00,
2014-02-04 16:22:00,66.0,29.0,-100.00,WSW,240,3.0,10.0,25,0.00,,,0.00,278.000000,,2014-02-05 00:22:00,
2014-02-04 16:32:00,66.0,29.0,-100.00,WSW,240,3.0,10.0,25,0.00,,,0.00,278.000000,,2014-02-05 00:32:00,
2014-02-04 16:42:00,66.0,29.0,-100.00,WSW,240,3.0,10.0,25,0.00,,,0.00,278.000000,,2014-02-05 00:42:00,
2014-02-04 17:11:00,63.0,32.0,-100.00,NE,45,3.0,9.0,31,0.00,,,0.00,101.000000,,2014-02-05 01:11:00,
2014-02-04 17:21:00,63.0,32.0,-100.00,NE,45,3.0,9.0,31,0.00,,,0.00,101.000000,,2014-02-05 01:21:00,
2014-02-04 17:32:00,63.0,32.0,-100.00,NE,45,3.0,9.0,31,0.00,,,0.00,101.000000,,2014-02-05 01:32:00,
2014-02-04 17:42:00,63.0,32.0,-100.00,NE,45,3.0,9.0,31,0.00,,,0.00,101.000000,,2014-02-05 01:42:00,
2014-02-04 18:12:00,59.0,31.0,-100.00,NE,34,3.0,6.0,35,0.00,,,0.00,7.000000,,2014-02-05 02:12:00,
2014-02-04 18:22:00,59.0,31.0,-100.00,NE,34,3.0,6.0,35,0.00,,,0.00,7.000000,,2014-02-05 02:22:00,
2014-02-04 18:32:00,59.0,31.0,-100.00,NE,34,3.0,6.0,35,0.00,,,0.00,7.000000,,2014-02-05 02:32:00,
2014-02-04 18:42:00,59.0,31.0,-100.00,NE,34,3.0,6.0,35,0.00,,,0.00,7.000000,,2014-02-05 02:42:00,
2014-02-04 19:12:00,56.0,34.0,-100.00,East,80,1.0,5.0,43,0.00,,,0.00,0.000000,,2014-02-05 03:12:00,
2014-02-04 19:22:00,56.0,34.0,-100.00,East,80,1.0,5.0,43,0.00,,,0.00,0.000000,,2014-02-05 03:22:00,
2014-02-04 19:33:00,56.0,34.0,-100.00,East,80,1.0,5.0,43,0.00,,,0.00,0.000000,,2014-02-05 03:33:00,
2014-02-04 19:43:00,56.0,34.0,-100.00,East,80,1.0,5.0,43,0.00,,,0.00,0.000000,,2014-02-05 03:43:00,
2014-02-04 20:13:00,54.0,33.0,-100.00,SE,145,4.0,5.0,44,0.00,,,0.00,0.000000,,2014-02-05 04:13:00,
2014-02-04 20:23:00,54.0,33.0,-100.00,SE,145,4.0,5.0,44,0.00,,,0.00,0.000000,,2014-02-05 04:23:00,
2014-02-04 20:33:00,54.0,33.0,-100.00,SE,145,4.0,5.0,44,0.00,,,0.00,0.000000,,2014-02-05 04:33:00,
2014-02-04 20:43:00,54.0,33.0,-100.00,SE,145,4.0,5.0,44,0.00,,,0.00,0.000000,,2014-02-05 04:43:00,
2014-02-04 21:12:00,55.0,33.0,-100.00,South,184,3.0,6.0,44,0.00,,,0.00,0.000000,,2014-02-05 05:12:00,
2014-02-04 21:22:00,55.0,33.0,-100.00,South,184,3.0,6.0,44,0.00,,,0.00,0.000000,,2014-02-05 05:22:00,
2014-02-04 21:34:00,55.0,33.0,-100.00,South,184,3.0,6.0,44,0.00,,,0.00,0.000000,,2014-02-05 05:34:00,
2014-02-04 21:43:00,55.0,33.0,-100.00,South,184,3.0,6.0,44,0.00,,,0.00,0.000000,,2014-02-05 05:43:00,
2014-02-04 22:12:00,54.0,34.0,-100.00,SSW,198,3.0,4.0,47,0.00,,,-99.99,0.000000,,2014-02-05 06:12:00,
2014-02-04 22:23:00,54.0,34.0,-100.00,SSW,198,3.0,4.0,47,0.00,,,-99.99,0.000000,,2014-02-05 06:23:00,
2014-02-04 22:32:00,54.0,34.0,-100.00,SSW,198,3.0,4.0,47,0.00,,,-99.99,0.000000,,2014-02-05 06:32:00,
2014-02-04 22:42:00,54.0,34.0,-100.00,SSW,198,3.0,4.0,47,0.00,,,-99.99,0.000000,,2014-02-05 06:42:00,
2014-02-04 23:12:00,52.0,35.0,-100.00,SSE,152,1.0,5.0,52,0.00,,,0.00,0.000000,,2014-02-05 07:12:00,
2014-02-04 23:21:00,52.0,35.0,-100.00,SSE,152,1.0,5.0,52,0.00,,,0.00,0.000000,,2014-02-05 07:21:00,
2014-02-04 23:32:00,52.0,35.0,-100.00,SSE,152,1.0,5.0,52,0.00,,,0.00,0.000000,,2014-02-05 07:32:00,
2014-02-04 23:42:00,52.0,35.0,-100.00,SSE,152,1.0,5.0,52,0.00,,,0.00,0.000000,,2014-02-05 07:42:00,